Theta_e
319 319 319 319 319 319 318 318 318 317 317 317 316 316 316 315 315 314 315 316 316 317 317 318 319 319 318 317 317 316 316 318 319 319 318 317 316 315 316 317 316 315 315 315 314 314 313 313 314 316 316 316 316 316 315 316 316 316 318 318 317 317 317 319 323 319 317 319 318 317 316 322 326 322 323 324 324 324 325 326 326 328 328 328 328 328 329 328
320 320 320 320 320 320 320 320 320 319 319 318 318 317 317 316 316 315 315 315 315 316 316 317 318 319 319 318 317 316 317 318 319 319 319 317 316 316 316 317 316 315 315 314 313 313 314 314 314 315 316 316 316 316 315 316 315 316 318 318 318 320 317 316 319 316 315 317 316 316 315 318 323 321 321 326 326 324 328 328 328 330 329 327 328 329 329 329
319 320 320 320 320 321 321 321 321 321 321 320 319 319 318 317 317 316 317 316 316 315 315 315 316 318 320 319 318 318 317 317 319 320 318 317 316 315 316 317 316 315 315 314 313 313 314 314 314 315 315 316 316 316 316 316 315 315 315 318 320 319 315 313 314 315 316 316 314 315 315 316 318 319 321 325 325 326 330 329 329 331 328 327 328 328 329 329
319 319 319 320 320 320 321 321 321 321 321 321 321 320 319 318 318 318 317 317 317 316 315 314 314 317 318 319 319 318 317 318 320 320 318 317 315 315 316 316 315 315 316 315 315 314 314 314 315 315 315 316 316 316 316 315 315 314 314 319 319 315 315 315 314 316 316 316 314 315 315 315 316 318 321 322 325 331 330 326 328 329 326 326 327 328 329 329
319 319 319 319 320 320 321 321 321 321 322 322 321 321 320 320 319 319 318 318 318 318 316 314 313 315 317 318 320 318 318 321 323 320 320 319 315 315 315 315 315 316 316 316 315 314 314 314 315 315 315 315 316 317 317 316 316 315 315 316 316 313 315 316 315 316 316 316 315 314 315 317 317 317 320 322 326 331 327 323 325 325 324 325 326 328 329 328
318 318 319 319 319 320 320 321 321 321 321 322 322 322 321 321 320 320 319 319 319 319 317 315 313 314 315 318 319 319 318 321 322 320 321 320 317 315 315 315 314 315 315 315 315 314 314 314 315 315 315 316 317 317 318 317 315 316 316 314 315 315 314 316 317 316 316 315 313 314 316 316 316 316 318 320 323 324 320 321 322 322 323 324 326 327 328 328
317 317 318 318 319 319 319 320 321 321 322 322 322 322 322 322 321 320 320 320 319 319 318 315 314 314 314 316 318 319 318 320 321 319 319 320 319 316 315 315 314 314 315 315 315 315 314 315 315 315 316 318 317 316 317 316 314 316 318 315 315 316 314 316 317 316 316 315 314 316 315 315 315 317 317 318 319 320 320 320 319 320 322 324 327 328 328 328
316 316 317 317 318 318 319 320 320 321 322 321 322 322 322 322 322 321 321 321 320 319 318 316 314 314 314 316 318 318 319 320 320 319 319 320 320 318 316 314 314 314 314 315 315 315 315 315 315 316 317 319 317 316 316 315 316 316 318 316 315 316 316 317 316 316 316 316 317 316 314 315 316 317 316 317 319 319 319 319 318 319 320 323 326 327 328 328
315 315 316 316 317 318 319 319 319 320 320 321 321 322 322 323 322 322 321 321 320 319 318 317 315 314 315 316 317 318 320 320 320 319 321 322 320 319 318 316 315 314 314 315 316 316 315 315 315 316 318 318 316 317 315 315 317 316 317 316 315 316 317 316 316 316 316 316 316 315 315 316 316 316 317 318 319 319 319 318 319 319 319 321 324 326 327 327
314 314 314 315 316 317 318 319 319 319 319 320 321 321 322 323 322 322 321 320 320 319 319 317 315 314 315 316 317 320 321 320 320 320 322 322 321 320 319 318 317 316 315 315 316 316 316 316 317 317 318 317 316 316 315 316 318 316 316 315 314 315 316 315 315 316 316 316 316 315 318 317 315 317 318 320 319 318 319 319 319 319 320 320 322 326 327 327
313 313 313 313 315 315 317 319 320 320 320 320 320 321 322 322 323 321 320 320 319 319 318 316 316 315 316 316 316 319 321 321 320 320 322 323 322 322 320 319 318 317 316 315 316 316 315 316 317 318 317 317 316 316 316 316 317 316 315 315 314 315 315 314 314 315 315 317 316 315 317 316 314 317 318 318 318 318 319 319 320 321 321 321 322 326 327 328
313 312 312 313 313 314 316 318 319 320 320 321 321 321 321 322 322 321 320 319 318 317 316 316 316 317 317 315 316 319 319 320 321 321 322 323 322 322 320 318 317 317 317 315 314 314 314 314 315 316 316 317 317 316 318 317 316 315 315 316 316 315 315 315 314 315 315 316 317 316 317 318 318 317 318 318 318 318 319 319 321 322 322 322 323 326 328 329
313 312 312 312 312 313 315 318 319 320 320 320 320 320 321 321 321 321 320 318 318 317 317 317 317 317 317 316 318 320 320 320 320 321 321 322 323 322 320 318 318 316 316 315 314 314 313 314 313 314 315 316 316 316 317 316 315 316 315 316 316 316 316 315 314 315 315 316 317 316 316 319 322 318 317 319 318 318 319 319 321 323 324 323 325 327 328 328
314 313 312 311 312 313 315 318 319 320 320 319 318 318 320 320 321 321 319 318 318 318 318 319 319 319 317 317 319 320 320 320 320 321 321 321 322 320 320 321 320 317 316 314 314 314 313 313 314 314 315 316 316 316 317 315 316 318 315 316 316 315 317 315 314 316 316 317 317 317 316 318 321 318 317 318 317 318 318 319 321 323 325 325 325 327 328 328
314 313 312 311 311 313 315 317 319 320 319 317 316 318 319 319 320 319 318 317 317 318 319 320 319 318 317 318 320 320 321 321 321 321 321 321 321 320 320 321 321 318 317 314 313 313 313 313 315 316 317 317 317 316 317 317 319 319 314 317 319 314 315 316 314 315 316 316 316 316 317 318 319 317 318 317 317 318 318 319 320 322 325 326 326 327 327 327
315 314 313 312 312 313 314 316 318 319 318 316 317 318 318 318 319 319 318 318 318 319 319 320 320 319 319 319 321 322 323 323 323 323 322 321 320 320 320 321 321 319 317 316 314 313 314 316 316 317 317 317 317 317 318 318 320 321 316 316 319 316 315 316 315 315 314 316 316 316 317 318 318 317 318 318 317 317 318 319 319 321 325 327 326 327 329 328
315 314 313 312 312 312 314 315 317 319 318 316 317 318 316 316 318 319 319 319 319 319 319 320 320 320 321 320 321 323 324 323 323 323 323 322 322 320 320 321 321 319 318 317 316 315 315 316 316 316 316 315 316 318 318 316 319 325 321 317 317 315 313 314 315 315 313 315 316 315 315 316 317 316 317 317 315 316 318 320 319 320 324 327 329 330 330 330
315 314 314 313 312 312 313 314 316 318 316 316 317 318 316 316 316 317 319 320 320 319 320 321 320 322 323 321 322 323 324 324 324 323 322 322 323 322 320 320 320 319 319 317 316 316 316 315 314 317 318 316 316 318 317 315 317 319 319 317 315 314 313 314 315 315 315 315 316 315 316 316 316 316 316 316 315 316 317 319 319 321 323 327 330 331 332 332
315 315 314 313 312 313 312 313 316 316 316 316 317 317 317 316 316 317 318 318 318 318 320 319 319 322 322 320 321 322 322 323 323 322 321 323 323 323 321 319 319 319 318 319 318 315 315 315 315 317 319 318 317 317 317 317 316 315 315 315 314 314 313 313 314 315 314 316 316 316 316 317 316 317 316 315 314 314 315 316 317 319 321 325 329 330 332 333
316 315 314 313 312 312 312 313 315 316 316 316 316 318 318 316 318 319 316 315 317 317 317 316 315 316 317 318 319 319 319 321 321 320 321 323 323 323 322 319 319 319 318 320 320 315 314 317 318 319 319 318 318 316 316 315 314 314 314 314 314 313 313 314 315 315 315 316 317 317 317 316 317 317 316 314 315 314 312 313 313 315 317 321 327 330 331 330
316 315 315 313 313 312 312 312 314 314 314 316 316 316 314 312 317 317 313 314 316 316 317 318 316 316 317 318 318 318 318 318 319 320 320 322 323 323 321 320 320 322 319 316 316 316 315 317 319 319 318 317 316 314 314 313 313 313 314 313 314 313 313 315 315 315 315 315 318 318 317 317 317 317 316 315 317 315 314 314 314 317 317 317 322 326 329 329
316 316 315 314 313 312 312 312 312 313 314 316 315 313 310 309 312 312 310 313 317 318 321 321 320 320 320 318 319 318 317 317 319 320 319 320 323 322 320 320 322 323 319 314 317 318 317 319 319 317 315 314 314 314 313 313 313 313 313 313 313 314 314 315 316 316 315 315 318 318 317 317 317 318 318 318 319 320 322 322 322 323 322 319 318 321 326 331
316 316 315 315 314 312 312 311 310 312 314 314 312 309 309 308 308 309 309 310 314 320 322 322 321 320 320 319 319 320 316 316 318 318 320 320 321 321 319 320 322 321 319 318 321 320 320 323 321 316 314 314 315 314 313 314 314 314 313 314 314 315 315 316 317 318 316 316 317 317 317 317 317 319 322 318 318 323 326 327 327 326 325 323 320 319 323 328
316 316 316 315 314 313 312 311 310 311 312 311 307 306 308 308 306 308 310 311 314 320 323 321 321 319 319 320 318 319 317 316 319 318 319 320 320 321 319 320 320 320 320 320 321 319 320 322 318 315 315 316 316 315 315 315 317 317 316 314 315 316 315 316 317 316 317 318 317 317 319 324 327 328 329 322 320 327 327 325 328 328 327 326 324 322 321 323
316 316 315 314 314 313 313 312 311 310 311 310 306 305 308 307 306 309 314 321 322 324 324 320 320 320 319 320 318 318 318 317 319 320 319 320 321 321 320 319 320 323 322 319 319 320 320 319 316 318 319 317 317 318 317 316 319 319 317 317 317 318 318 316 316 315 318 321 320 318 320 329 339 334 331 330 331 333 328 327 329 327 329 330 328 327 323 321
315 315 315 314 314 313 313 311 310 309 310 310 306 307 309 307 308 311 319 335 333 323 323 321 320 320 318 319 318 319 320 321 321 320 320 320 321 321 320 319 318 321 322 318 318 321 321 319 317 319 319 317 318 319 318 317 318 318 321 321 317 318 318 317 317 315 318 321 320 319 318 324 334 331 330 334 336 338 335 339 335 325 329 332 329 330 327 323
315 315 314 314 314 313 312 310 309 309 309 308 306 308 309 307 311 314 322 337 332 319 321 322 319 320 318 318 319 319 322 323 321 320 320 320 321 320 321 322 319 318 319 317 319 322 323 321 318 319 320 319 320 320 320 319 318 321 325 322 319 319 318 319 319 317 318 320 321 323 319 319 325 328 332 332 334 339 339 347 345 328 327 330 331 332 329 327
316 315 314 314 313 311 311 309 309 309 307 307 307 308 310 309 312 319 326 329 324 320 320 320 319 318 318 319 319 319 320 320 321 321 320 319 319 318 321 323 321 320 318 318 321 322 322 322 321 321 321 320 323 323 321 319 320 324 324 321 320 320 319 319 318 318 321 319 322 330 322 318 325 332 336 331 331 339 339 346 350 334 327 330 332 333 332 329
316 315 315 314 313 311 311 311 311 310 308 308 308 308 312 312 315 323 330 324 319 320 319 319 319 317 316 319 319 317 317 318 320 320 319 320 320 319 321 320 319 319 317 318 322 322 320 320 320 320 321 322 324 324 321 320 321 322 319 319 320 319 321 323 320 318 321 319 322 327 321 317 326 337 339 330 328 338 343 348 347 331 327 333 333 333 334 331
316 315 314 314 314 312 312 313 312 311 309 308 308 311 313 318 325 330 327 322 320 320 319 317 317 315 315 319 320 317 316 317 317 319 319 319 319 319 319 319 318 320 322 320 321 321 318 318 318 318 321 322 321 322 320 318 319 319 319 320 321 323 324 329 332 322 318 324 326 324 322 317 323 339 343 330 329 338 343 347 347 334 329 333 334 334 336 333
316 315 314 315 314 313 315 315 313 312 311 309 310 314 315 321 337 339 323 318 324 322 318 317 316 315 315 317 319 316 316 317 315 317 319 319 322 320 319 321 322 327 332 326 321 322 321 320 320 319 319 319 320 321 318 317 317 317 323 324 321 327 325 328 338 327 318 328 328 324 325 319 321 338 345 337 334 337 338 342 346 338 329 329 332 332 336 336
316 315 314 314 314 314 316 315 314 312 312 311 309 315 322 324 330 333 324 320 324 322 317 317 315 314 314 317 318 314 316 318 315 316 318 319 323 321 318 321 322 324 330 329 324 324 325 324 321 319 319 317 318 322 321 323 323 319 329 333 327 330 329 328 335 330 324 329 324 323 325 322 324 332 334 334 333 332 333 333 333 331 326 326 328 329 333 337
316 315 314 313 314 315 316 315 313 312 312 313 310 316 333 331 321 326 328 322 319 318 316 316 315 315 316 318 317 313 315 318 315 316 316 318 323 322 318 318 317 318 323 326 325 325 327 329 328 323 321 318 318 321 321 325 327 319 324 332 329 327 326 329 334 328 325 328 324 323 322 323 328 328 327 332 330 326 326 325 325 325 325 325 326 329 334 337
315 315 313 313 315 315 316 315 311 312 313 312 312 318 326 324 319 325 326 320 318 317 315 315 315 316 318 318 316 313 316 318 314 315 319 321 324 325 321 318 316 317 321 323 325 324 324 328 329 323 320 319 318 319 317 320 324 322 322 325 325 323 321 326 332 327 325 329 326 321 322 327 328 324 327 330 326 323 324 325 326 326 325 326 328 333 337 338
316 315 313 314 316 314 314 313 310 312 310 309 323 330 323 319 321 324 321 317 318 317 315 315 317 322 323 323 320 314 314 317 315 317 322 323 320 321 320 317 316 317 319 322 325 323 322 326 326 319 317 318 316 316 316 319 324 324 322 323 323 324 322 325 330 327 324 328 329 325 326 330 326 325 332 331 327 326 325 325 326 325 325 326 328 332 338 341
316 315 314 315 315 313 313 312 311 311 307 315 335 333 321 319 320 319 317 315 316 315 316 318 320 325 325 324 325 318 313 315 316 317 322 322 318 318 318 315 315 315 316 320 324 323 323 328 325 317 317 317 313 316 316 316 324 327 322 320 321 321 322 325 329 329 324 325 329 327 325 329 327 328 336 337 335 333 331 329 326 324 325 325 325 328 334 342
316 315 315 315 314 313 313 312 312 309 306 318 331 322 315 318 316 316 316 313 313 315 318 319 318 318 318 320 324 321 315 316 316 315 320 322 319 315 316 316 315 315 314 316 321 321 319 323 325 318 318 318 313 314 316 313 319 326 321 319 321 320 322 326 326 326 327 328 328 326 325 329 328 328 336 342 339 336 337 334 329 324 323 323 323 324 328 335
315 315 315 314 314 313 314 313 312 309 308 318 325 319 317 316 313 314 313 311 313 315 317 318 316 315 316 315 319 320 316 317 318 317 319 323 318 314 315 316 315 315 313 313 318 320 316 321 329 322 317 318 315 315 320 318 316 318 317 317 320 319 322 326 324 325 328 326 327 330 328 328 328 328 333 336 334 330 330 333 333 327 322 321 322 323 324 327
315 315 314 314 313 313 314 313 310 310 316 322 322 318 315 314 314 314 312 311 313 314 314 315 315 315 316 313 316 320 318 316 317 316 318 319 316 313 313 314 314 315 314 313 316 319 317 319 327 325 315 315 320 319 321 322 318 315 316 318 320 320 321 323 324 327 326 322 324 328 326 327 327 324 324 326 326 323 322 329 333 325 320 321 322 323 324 325
314 313 313 313 313 314 313 312 311 315 319 318 317 316 313 314 315 313 312 312 312 313 313 313 313 315 317 315 315 316 317 318 317 315 317 318 315 313 312 311 313 314 314 315 316 317 319 319 323 325 319 316 323 323 319 318 318 317 318 319 321 322 321 320 320 322 322 320 324 324 324 330 328 321 322 324 323 322 321 326 330 324 320 321 321 323 324 325
312 312 313 312 313 313 313 313 312 315 320 317 315 316 314 314 315 312 311 311 311 313 313 313 313 313 315 315 316 315 317 321 320 317 318 316 315 315 312 310 312 314 316 320 320 318 319 320 320 321 320 319 323 324 319 316 316 317 318 319 320 320 319 318 320 323 322 320 324 323 323 330 328 321 324 324 322 323 322 323 326 323 320 320 321 323 323 322
311 312 313 312 313 312 313 317 310 310 319 318 312 312 312 312 313 312 310 310 311 312 312 313 315 315 315 315 316 316 317 320 321 318 317 315 314 314 312 310 312 315 318 321 320 317 317 318 319 319 320 319 319 317 314 315 314 315 317 318 320 322 320 317 320 325 323 320 321 320 320 329 330 323 323 322 321 322 321 321 322 321 319 318 320 323 322 321
309 311 312 312 312 311 314 320 315 312 317 313 308 310 311 311 312 311 310 309 310 311 312 313 313 314 314 314 315 316 315 317 319 317 317 316 314 311 309 310 313 316 320 320 318 316 316 318 318 318 318 316 318 317 314 315 316 316 318 318 318 319 319 319 321 323 323 322 322 318 319 328 330 324 321 319 318 320 319 319 320 318 315 315 317 320 321 322
308 311 312 311 312 312 315 318 316 316 315 310 310 312 310 310 311 310 310 309 310 311 313 313 312 312 313 312 314 316 314 315 317 317 317 317 314 311 309 309 312 315 318 318 316 313 316 320 319 318 318 316 319 322 319 319 320 317 317 317 316 317 317 320 322 321 322 325 323 318 320 326 327 324 323 321 320 320 317 316 316 315 314 313 315 317 319 321
310 312 311 309 311 312 311 311 311 314 314 313 315 314 311 311 310 309 309 308 308 310 311 312 311 311 313 314 315 317 317 316 316 316 317 315 314 312 308 308 310 314 316 314 312 311 314 318 317 317 320 318 318 320 319 317 317 316 316 317 317 318 317 317 318 318 320 324 322 319 320 321 322 322 325 327 325 322 317 315 315 315 315 314 313 313 316 319
310 313 312 310 310 309 307 306 307 311 313 313 314 313 311 312 309 307 309 308 308 309 308 309 309 310 315 315 315 317 318 316 316 317 315 314 314 311 308 308 309 312 314 311 309 312 316 318 317 317 319 317 316 316 316 314 314 314 315 315 316 317 316 316 316 316 318 319 318 317 316 317 316 317 321 327 329 326 323 319 316 315 316 314 312 312 314 317
309 312 311 310 311 310 308 306 305 307 309 308 310 310 310 311 309 308 309 307 307 308 307 307 308 309 313 313 312 315 315 314 315 314 312 313 315 311 307 307 309 310 311 308 307 312 315 314 316 316 314 313 314 315 314 314 312 312 312 313 315 318 317 317 316 316 316 316 317 316 315 316 315 313 318 328 331 329 325 320 317 318 318 315 314 314 314 315
309 310 307 307 310 311 310 308 305 305 306 307 309 310 309 311 311 309 308 307 307 307 307 309 308 307 309 310 310 312 312 313 313 312 311 312 312 309 307 308 309 308 307 306 305 309 311 312 316 316 313 312 313 313 313 311 310 309 310 310 313 315 316 315 315 315 315 315 315 315 315 315 314 312 317 325 326 324 321 319 318 319 318 316 316 314 314 314
307 307 306 306 308 307 306 306 304 305 307 307 310 309 308 309 310 307 306 308 310 307 306 308 308 307 308 311 311 310 309 311 311 309 310 309 307 307 309 309 308 307 306 306 306 307 310 314 318 316 311 309 308 308 310 310 308 309 309 310 311 313 314 314 314 314 315 315 314 314 315 315 314 313 315 318 318 317 317 317 316 316 316 315 315 314 314 314
305 306 306 305 304 304 304 304 304 307 308 306 308 308 306 307 307 305 305 306 308 307 305 307 309 308 307 308 309 307 305 305 306 306 307 306 305 308 309 309 309 308 306 306 307 307 309 312 313 310 307 307 305 307 310 311 311 310 309 310 310 310 311 312 312 313 313 313 313 313 314 314 313 312 313 313 313 314 316 315 315 315 315 314 314 314 314 314
304 304 304 304 305 306 305 303 303 307 309 307 308 308 306 306 305 304 306 305 304 305 305 305 307 308 307 307 306 304 302 302 302 303 303 303 304 306 307 307 307 307 306 308 309 308 308 311 310 307 306 306 305 306 309 311 311 309 309 309 308 309 310 311 311 313 313 312 313 313 313 313 312 312 312 311 312 313 314 314 314 314 314 315 314 314 314 314
303 303 303 303 305 305 304 302 302 306 308 305 306 306 305 304 302 302 306 306 302 303 303 302 303 305 307 307 304 302 301 301 301 302 302 302 302 303 303 304 305 305 306 308 310 309 309 309 308 306 306 307 305 306 308 308 308 307 307 307 308 310 311 311 311 312 312 312 313 312 311 310 309 309 309 309 309 309 310 311 313 313 313 314 314 314 314 313
Wind_Speed
17 18 17 18 18 18 17 17 17 17 17 17 17 17 18 18 19 19 18 17 16 15 14 14 15 15 14 15 15 15 16 16 18 19 15 8 4 9 11 12 11 12 11 10 8 7 5 4 4 3 2 2 4 4 3 3 6 5 2 1 3 3 5 4 6 5 1 6 8 12 11 4 7 8 8 7 9 14 10 12 15 17 23 25 23 17 12 12
18 18 18 18 18 18 18 18 18 17 17 17 17 17 17 18 18 19 19 18 18 16 15 15 14 14 14 14 15 16 16 16 18 14 7 6 3 8 14 13 11 11 10 9 8 7 5 4 4 4 3 3 5 4 2 2 6 5 3 1 4 5 6 6 5 5 3 8 13 20 19 7 12 12 6 7 7 10 7 9 14 17 22 26 27 24 16 13
20 20 20 19 19 19 19 19 18 18 18 18 17 17 17 18 18 18 19 19 18 17 16 15 15 14 14 13 14 15 15 18 15 5 3 6 2 6 12 13 12 11 9 8 7 6 5 4 5 4 4 4 4 3 1 3 6 6 4 2 6 6 6 7 7 11 12 16 14 18 18 6 12 14 8 8 5 3 7 11 11 16 25 28 27 27 20 15
21 21 21 21 21 21 20 20 20 19 19 18 18 18 18 18 18 18 18 19 19 18 16 15 16 14 13 13 13 14 15 15 7 2 2 6 3 4 10 12 12 10 9 8 7 7 5 5 5 4 3 4 3 3 3 5 6 4 5 4 6 3 5 8 9 16 20 18 13 15 14 10 12 11 11 8 2 1 10 20 20 22 28 28 28 28 24 19
22 22 22 22 22 22 22 21 21 21 20 20 19 19 19 19 19 18 19 19 18 18 16 15 16 14 13 13 12 12 12 7 1 5 2 4 3 2 9 11 11 10 10 9 8 7 6 6 5 3 2 3 3 2 3 6 7 3 5 9 11 6 6 14 17 18 20 16 13 13 10 12 11 6 14 10 6 7 15 21 25 26 26 26 27 28 26 23
22 22 22 22 22 22 22 22 22 21 21 21 20 19 19 19 20 19 19 18 18 18 16 14 15 15 13 12 12 11 6 2 1 2 1 2 2 2 7 10 11 11 11 10 9 8 7 7 5 2 0 2 2 3 6 5 5 3 5 8 13 12 8 19 23 18 19 15 11 11 10 12 9 6 14 16 15 18 20 18 18 21 23 26 27 28 29 27
21 21 21 21 22 22 22 22 22 21 21 20 20 20 19 20 20 19 19 18 18 17 16 14 14 14 13 12 11 9 6 7 5 5 7 4 4 3 6 9 10 11 11 11 10 9 8 7 6 3 1 3 3 4 7 7 4 4 6 5 10 13 12 21 24 21 22 18 18 18 13 12 11 9 8 15 22 25 24 21 18 17 19 25 27 29 30 29
22 22 22 22 22 22 22 21 21 21 20 20 19 19 19 20 20 20 19 18 18 17 16 14 13 13 12 11 9 9 9 7 3 5 7 6 8 4 5 8 10 12 11 12 10 8 7 6 7 4 2 3 3 4 5 7 4 4 4 7 11 14 17 24 25 25 25 22 24 20 13 17 18 11 6 16 27 27 24 23 20 18 18 23 27 29 31 30
23 23 23 23 23 23 22 22 21 20 20 19 19 19 19 19 19 19 18 18 17 17 16 13 13 12 10 9 8 8 7 3 2 3 4 7 10 7 6 6 9 12 12 12 10 9 8 7 8 7 5 4 4 5 6 6 4 3 5 13 14 17 23 25 23 25 24 22 20 11 11 18 15 6 9 22 24 20 18 16 16 17 18 22 26 29 31 31
24 24 24 24 24 24 24 23 22 20 19 19 19 19 19 19 19 19 18 17 17 16 15 13 12 10 9 8 3 2 3 2 2 2 3 5 9 9 7 6 6 9 12 13 12 12 11 6 3 3 6 5 3 7 9 3 6 9 13 16 15 20 24 19 20 24 21 19 14 7 10 15 9 1 8 23 19 13 15 12 12 15 17 20 25 29 31 32
24 24 24 25 25 25 25 24 23 20 19 19 19 19 19 19 18 18 18 17 16 15 13 12 11 9 8 6 5 3 2 3 2 3 4 4 8 9 6 5 7 8 9 12 13 14 12 9 5 0 2 3 4 10 12 8 10 16 16 14 14 18 20 15 14 16 12 9 9 4 10 14 6 2 11 24 20 14 14 13 14 15 17 18 23 29 31 32
24 24 25 25 25 25 26 25 23 20 20 20 19 18 18 17 17 17 17 16 14 12 11 10 9 8 7 7 8 6 4 5 4 4 5 5 8 8 5 4 7 8 8 8 10 12 11 10 9 6 5 4 5 8 9 12 16 15 11 9 10 11 12 10 6 6 5 6 12 8 7 10 2 6 17 22 19 15 14 14 15 16 18 19 23 29 32 32
25 25 25 25 25 26 26 25 23 21 20 21 20 18 16 16 16 16 15 14 12 11 11 9 9 9 8 6 5 3 3 6 6 5 6 7 9 8 5 5 7 8 8 8 9 9 7 7 7 9 9 5 4 5 10 15 15 11 6 3 6 8 6 5 6 9 8 7 13 6 3 10 5 12 23 22 17 16 14 16 17 17 20 21 25 31 33 33
26 26 25 25 25 26 26 26 24 22 21 21 20 19 16 15 15 14 14 12 11 10 10 9 8 8 7 6 4 4 6 6 7 7 6 7 9 9 7 5 7 8 8 9 10 9 6 5 5 6 8 7 8 9 10 9 7 6 4 1 3 5 5 8 9 8 5 7 9 5 0 9 9 19 30 24 15 13 15 19 18 19 21 22 27 31 34 34
26 26 26 26 26 26 26 26 24 23 22 21 21 20 16 13 13 12 10 8 8 9 9 8 7 6 8 8 4 3 5 4 4 5 7 9 9 10 8 6 7 7 8 9 9 10 8 6 5 5 7 8 6 5 6 4 4 3 3 4 3 2 7 12 9 2 3 6 6 5 1 8 10 20 30 25 15 12 16 20 18 19 22 23 27 32 35 35
26 26 26 26 26 26 26 26 25 23 23 23 23 22 17 13 11 8 7 7 7 9 9 7 5 4 5 4 4 4 4 4 4 3 3 8 10 11 8 7 9 8 8 7 7 8 7 6 6 5 5 4 0 2 3 5 5 3 2 4 4 3 6 9 7 1 3 4 4 3 2 7 9 19 33 29 18 13 15 21 21 20 22 24 27 31 35 36
27 26 26 26 26 26 26 26 25 23 23 24 23 22 17 12 9 7 6 6 8 11 10 7 6 6 4 2 2 4 6 5 5 6 4 3 9 11 10 9 8 8 7 7 7 7 5 4 3 3 2 1 2 4 3 5 5 4 3 2 4 4 4 6 8 4 4 5 5 1 4 8 11 16 32 30 18 14 17 22 23 20 21 23 26 30 34 36
28 26 26 26 25 26 26 25 23 23 25 23 24 23 13 10 10 8 7 9 11 11 9 6 5 4 2 0 2 3 2 1 2 6 7 2 7 11 12 10 8 7 5 3 5 5 5 3 1 1 3 4 2 5 1 5 4 4 4 4 4 4 4 7 8 5 5 6 6 5 3 10 13 14 24 23 16 15 19 21 21 20 19 21 25 30 33 35
28 27 26 26 25 25 25 24 22 23 25 22 25 21 9 11 9 6 9 11 8 5 3 5 4 2 4 5 4 5 7 7 7 8 7 2 6 10 13 11 8 6 2 1 2 2 3 1 2 1 3 3 2 5 6 8 6 6 5 4 5 6 7 10 11 6 3 6 9 10 7 10 13 15 18 17 16 16 20 20 21 20 19 20 25 30 33 36
29 28 27 26 25 25 24 22 20 22 24 22 26 19 10 16 7 4 17 12 3 6 8 9 9 12 15 16 13 13 12 9 10 7 3 1 7 10 11 10 6 4 0 2 2 1 2 0 2 5 7 8 7 7 7 5 3 3 3 4 5 6 9 12 13 7 3 3 9 10 7 9 12 14 13 14 14 12 14 16 20 21 20 20 24 30 34 38
29 28 28 27 26 26 23 19 18 22 22 20 24 19 14 16 7 7 21 11 5 12 12 10 9 12 14 14 13 13 12 9 9 7 2 3 8 8 9 7 1 2 2 3 2 2 3 0 6 9 9 9 7 5 5 3 2 3 2 5 6 5 9 13 14 10 1 2 8 9 8 10 13 13 10 10 8 5 5 10 15 20 22 21 24 30 34 37
30 28 28 27 26 26 21 17 18 20 19 17 21 20 16 13 6 7 13 9 11 14 11 11 8 9 11 10 7 7 8 5 5 8 6 5 9 9 7 5 3 2 1 3 1 2 2 3 11 12 7 4 5 3 4 3 3 4 2 2 5 5 6 10 12 7 1 3 6 8 7 10 14 11 7 6 6 4 4 7 10 15 21 24 24 28 33 34
30 28 28 27 27 26 19 14 17 18 16 15 19 20 15 11 7 7 6 7 12 11 11 12 11 13 14 12 8 2 5 3 3 6 8 9 10 10 8 7 4 2 0 2 4 2 1 7 10 7 4 4 6 2 5 3 2 4 4 2 5 7 3 5 8 6 2 3 7 8 6 8 11 9 6 8 7 6 7 9 10 10 16 22 23 24 29 32
31 29 28 27 27 25 18 13 17 17 14 16 19 17 14 12 7 6 4 4 7 8 10 10 11 16 15 14 11 3 2 3 3 4 9 11 9 8 7 7 4 2 4 4 6 5 6 11 6 1 3 6 4 3 5 3 3 4 6 5 6 9 6 7 7 8 8 5 4 4 5 5 6 6 6 7 6 7 7 8 11 10 11 17 21 20 23 29
32 30 28 28 27 24 17 13 20 20 12 14 19 17 14 12 8 5 4 1 3 7 9 8 8 13 15 14 11 5 3 3 3 2 10 14 10 7 3 5 5 3 5 4 2 5 9 10 5 3 4 4 3 5 4 6 3 4 5 9 10 10 10 9 6 5 6 6 2 2 5 5 5 5 7 5 6 7 6 6 10 13 10 11 15 16 17 23
33 30 29 29 27 24 18 15 22 21 12 14 19 17 14 11 7 4 3 3 2 6 7 7 5 10 16 14 10 7 3 4 10 7 7 14 12 8 3 2 4 3 4 5 1 3 6 6 2 3 5 1 2 5 4 8 3 3 5 9 11 9 8 8 7 1 1 6 4 3 2 7 6 5 8 4 6 9 8 6 10 13 12 11 12 13 14 17
33 30 28 28 26 24 21 19 22 22 17 18 19 17 13 9 6 5 3 4 4 4 4 6 4 9 17 13 7 4 2 8 12 9 1 11 13 10 5 2 2 3 4 4 1 3 4 5 3 0 2 1 2 5 5 8 6 3 8 6 7 7 7 8 6 4 3 5 5 3 1 5 5 5 7 4 5 9 9 8 9 11 16 16 14 13 13 15
32 29 27 26 23 22 21 20 21 23 22 20 19 17 12 8 5 3 4 4 3 4 2 5 4 10 19 13 8 6 4 7 7 8 9 6 12 7 6 6 4 3 3 5 3 4 3 3 3 2 1 2 4 6 5 7 4 8 9 5 5 6 7 6 4 5 3 2 6 5 0 3 5 6 5 4 4 7 9 9 9 11 18 20 19 18 15 13
31 28 26 24 20 19 19 20 22 23 22 20 18 16 11 7 3 2 5 2 3 4 4 7 6 12 20 12 8 12 9 8 5 6 9 2 11 5 2 6 4 3 2 4 5 7 3 4 4 3 2 4 6 8 5 7 6 8 5 4 4 3 3 2 3 5 1 2 6 7 1 2 5 5 4 3 2 6 8 8 8 11 17 20 20 20 18 14
30 27 25 22 19 19 18 19 22 22 22 20 17 15 10 5 2 4 4 1 1 5 5 7 7 11 17 9 6 13 8 6 10 10 11 6 5 5 2 4 2 3 3 1 3 8 6 3 2 3 4 6 5 8 5 6 7 6 5 5 4 4 3 2 1 1 1 2 7 7 2 3 3 5 4 3 4 5 6 7 7 10 17 21 20 20 19 16
29 26 23 20 18 20 20 21 23 23 22 20 16 13 8 3 4 6 1 2 1 6 6 5 6 8 11 5 3 9 6 6 12 12 10 9 5 4 4 4 2 3 4 4 3 5 7 5 3 4 5 4 1 4 4 1 1 1 2 3 3 5 4 3 4 2 1 5 6 5 1 4 2 5 4 5 6 5 5 6 7 8 15 22 23 21 18 14
28 25 21 19 17 18 21 23 24 24 22 19 15 10 3 2 3 2 2 3 1 3 4 3 5 7 7 4 4 7 4 4 9 8 4 5 5 5 5 3 2 3 3 4 3 5 6 4 5 5 4 2 2 2 5 5 5 4 3 4 4 4 4 3 4 2 2 6 5 3 2 2 4 7 6 7 7 6 5 7 7 7 13 21 24 22 19 12
27 25 21 18 16 17 19 21 24 23 21 18 12 6 4 4 1 2 2 4 1 2 4 3 6 7 4 4 5 7 3 3 7 7 4 3 4 4 4 5 4 1 2 3 2 5 5 5 7 4 2 4 4 2 3 4 4 5 2 3 2 1 3 3 4 3 3 6 4 2 2 3 4 5 6 6 8 8 7 7 6 7 12 18 20 19 16 10
25 23 20 17 15 17 19 21 22 21 20 16 9 3 4 2 2 1 3 3 3 4 3 3 6 7 4 4 3 5 4 3 6 7 5 4 5 4 4 8 9 4 0 1 1 1 2 4 5 2 2 5 3 1 2 3 3 4 2 4 2 2 1 3 4 3 5 6 5 3 1 2 3 4 5 7 9 7 4 3 4 7 10 11 12 13 12 8
23 21 18 15 14 17 20 21 21 19 18 14 6 4 3 1 2 1 3 4 3 4 5 4 4 4 5 3 3 5 5 3 6 6 4 4 4 4 4 6 9 6 3 3 2 1 1 4 5 5 5 2 3 3 3 1 3 4 2 4 2 1 3 2 3 5 3 3 4 2 2 4 3 4 5 5 7 6 2 3 6 8 8 8 10 13 12 8
24 20 16 13 15 17 20 22 20 18 16 9 6 5 2 1 1 1 2 5 3 4 6 6 4 4 4 4 3 5 5 3 4 5 3 2 3 5 5 3 6 7 4 2 2 1 3 4 8 11 5 3 6 7 3 2 2 2 2 1 3 3 5 2 4 2 1 2 4 1 2 5 4 4 5 6 7 7 5 7 8 8 8 10 14 14 12 8
26 22 15 13 17 18 20 22 20 16 12 6 5 3 1 2 0 1 3 6 5 3 3 3 3 2 2 3 3 5 5 4 4 4 3 2 3 6 6 4 6 7 4 3 3 1 1 5 7 8 4 5 14 9 2 2 2 3 1 4 3 1 3 2 2 3 3 3 5 1 2 5 4 4 6 8 8 8 7 7 8 9 14 19 21 18 13 8
27 21 13 14 18 18 20 21 18 13 8 6 4 1 0 1 1 4 8 8 5 2 4 1 2 1 1 1 3 4 4 3 3 4 3 1 2 4 5 4 7 11 12 7 2 1 2 4 6 3 4 10 15 7 2 5 5 5 1 2 1 1 2 2 1 2 2 3 5 4 3 3 3 3 6 8 9 10 10 8 7 10 15 20 22 19 15 13
25 17 10 15 17 16 19 18 15 11 6 5 3 1 1 1 4 10 13 10 3 1 2 1 1 2 1 0 2 3 3 2 1 2 2 1 1 5 8 5 6 15 19 9 2 2 2 1 6 4 1 6 8 4 3 6 6 4 2 3 2 2 4 2 1 2 2 3 5 4 5 4 5 3 5 8 10 10 11 8 5 7 11 17 20 17 14 14
23 13 8 16 17 14 17 15 11 9 6 3 0 1 2 2 6 13 16 10 3 1 2 1 1 2 3 2 1 2 2 1 1 0 1 1 1 4 10 8 5 12 16 9 5 3 3 1 5 5 4 5 4 2 3 5 4 4 4 4 4 2 1 2 2 1 2 2 3 2 4 5 4 3 4 7 7 8 9 5 3 6 12 17 19 15 12 12
20 9 7 18 18 14 15 11 8 7 4 2 1 1 3 4 5 11 15 13 6 2 2 1 1 1 2 2 2 2 3 2 2 0 1 2 3 2 8 11 8 8 8 7 5 3 3 1 4 4 4 3 4 7 6 5 4 3 2 3 3 2 1 3 4 2 2 1 3 2 4 6 4 3 3 3 3 4 7 6 3 7 15 18 17 13 10 11
16 6 8 17 17 15 13 7 5 5 3 2 3 3 5 6 5 7 12 14 9 4 4 2 1 2 1 1 2 2 3 2 1 2 1 2 3 1 8 16 14 7 3 3 3 4 3 1 3 5 4 5 10 11 4 1 2 2 1 1 1 1 1 1 5 4 2 1 2 2 3 6 5 3 3 2 2 4 8 9 6 10 17 19 17 13 9 9
16 9 8 14 16 14 8 4 5 4 1 3 5 4 5 4 4 6 8 10 7 4 5 3 2 4 2 1 2 2 3 2 1 1 1 1 3 2 9 20 16 8 5 2 4 7 6 2 2 6 5 4 7 7 2 3 2 2 2 2 2 3 2 3 4 2 1 3 3 2 4 6 5 2 4 3 4 7 10 10 8 11 17 19 18 14 10 9
17 10 5 13 18 11 4 3 3 3 3 5 4 4 5 2 5 7 4 6 7 3 2 2 2 4 2 2 3 1 3 2 0 2 1 1 0 1 10 21 14 6 5 4 5 7 4 2 3 7 8 5 5 5 5 5 3 2 5 5 4 5 3 2 1 2 1 5 5 4 5 6 4 3 4 2 3 5 5 8 6 8 13 15 14 13 11 8
14 6 4 13 17 12 8 5 2 1 2 4 3 4 5 3 7 8 3 4 8 4 2 1 2 3 3 3 3 3 3 2 1 3 2 2 3 3 10 20 12 5 5 8 11 7 1 1 1 2 5 7 6 5 3 4 4 2 4 6 6 6 5 4 2 0 4 5 4 5 6 6 6 4 4 3 1 1 3 3 4 2 8 12 13 12 10 9
8 3 5 10 13 15 14 9 6 2 1 4 3 3 4 2 7 8 4 5 9 7 4 2 2 2 3 5 3 3 3 2 2 2 2 4 3 2 14 22 12 6 5 10 17 9 2 0 1 4 6 7 8 7 4 2 5 6 6 5 6 8 7 3 2 4 5 5 6 8 7 8 12 10 4 4 5 5 6 7 6 5 4 6 12 14 12 9
4 1 3 5 7 8 10 11 11 5 1 2 1 2 3 2 5 6 5 4 8 8 4 3 5 4 2 4 3 1 3 3 2 2 1 3 3 5 16 17 8 6 7 10 16 9 1 2 3 7 10 10 9 8 6 6 9 12 11 9 7 8 7 4 7 8 3 3 10 11 5 6 13 14 6 6 8 7 6 10 12 12 13 10 9 12 12 9
3 1 1 1 2 1 3 6 9 7 3 1 1 1 3 3 3 3 4 4 6 8 5 2 5 5 1 1 1 0 4 4 3 3 2 2 3 5 10 8 5 6 9 9 12 6 1 4 5 7 10 12 7 4 7 11 12 13 14 11 8 9 10 10 13 11 5 6 12 12 10 11 15 16 9 8 10 11 12 16 16 16 18 19 19 20 20 20
1 1 1 1 2 2 2 3 5 4 3 1 1 2 2 3 3 2 3 4 5 7 6 2 4 6 3 2 2 2 3 2 2 4 3 3 5 4 4 4 4 5 8 7 6 3 2 3 3 3 10 16 9 4 9 12 12 13 14 11 9 10 12 12 12 11 11 13 14 15 18 18 17 15 10 10 16 19 19 18 15 15 19 23 25 27 27 29
2 2 2 1 2 2 2 2 1 1 2 2 1 1 2 2 3 3 3 2 1 4 5 2 5 5 2 4 5 3 1 1 3 4 3 4 5 3 2 2 3 3 6 4 2 2 1 2 2 2 9 16 8 2 6 10 10 13 15 13 12 11 11 11 11 11 11 13 15 17 17 17 15 12 8 12 18 17 15 17 19 21 23 24 25 27 29 31
4 5 3 2 1 1 1 1 2 3 1 1 1 1 1 1 2 3 3 3 5 2 2 1 5 4 3 5 5 1 4 5 7 12 12 9 8 8 5 5 5 5 4 1 2 1 1 3 4 2 6 12 6 3 4 8 9 11 13 13 13 11 8 7 6 6 8 10 13 13 10 10 11 8 5 9 12 10 11 17 22 25 26 26 26 27 30 32
5 6 5 3 1 1 2 1 2 3 1 1 2 1 1 1 3 3 1 3 9 9 6 4 3 2 2 3 4 8 14 16 17 19 21 20 20 20 19 19 16 10 4 2 2 2 3 3 4 1 4 9 7 6 7 8 9 8 6 5 6 6 6 6 4 5 6 7 8 7 5 6 10 11 9 9 10 9 13 17 18 20 23 23 26 29 32 35
Wind_Direction
348 347 345 344 343 342 341 339 337 335 334 331 330 328 327 325 323 323 322 323 323 324 325 322 318 319 321 321 321 320 319 318 319 316 316 328 242 200 181 182 187 187 182 180 182 178 176 165 170 180 202 258 309 299 299 258 177 162 127 145 242 219 220 199 185 207 259 294 297 316 316 250 269 272 228 245 229 224 227 215 215 223 231 234 238 248 262 245
344 343 341 341 339 338 337 336 335 334 333 331 329 327 325 323 321 320 320 321 322 324 325 323 319 317 319 321 321 321 320 320 319 315 325 353 286 202 181 181 186 184 177 177 181 176 176 181 190 199 237 274 294 281 278 216 172 169 136 163 238 212 216 200 205 241 250 277 288 298 301 252 242 269 241 227 230 218 223 232 222 226 234 235 237 239 247 238
338 337 336 335 333 333 332 331 332 331 331 330 329 327 324 321 319 318 318 319 320 323 325 324 319 317 319 320 322 324 323 322 317 312 356 3 348 201 190 183 181 181 175 170 171 176 182 188 200 214 245 272 274 255 261 194 192 205 179 242 247 220 243 233 245 269 264 270 280 290 292 260 247 260 231 218 231 202 213 233 224 226 237 237 235 234 236 230
334 332 331 330 329 328 327 327 327 327 327 328 328 327 324 320 318 317 316 317 318 321 325 324 320 319 319 318 323 327 329 328 314 163 21 9 37 200 194 183 179 178 173 169 172 176 184 191 199 219 250 287 272 256 259 203 200 203 173 226 249 229 284 267 268 277 277 276 266 275 291 295 287 257 221 216 200 245 234 234 230 233 244 243 235 231 230 226
335 332 330 327 325 324 323 322 322 322 323 324 325 325 324 321 317 315 314 315 317 320 324 323 320 320 318 317 320 325 339 350 148 150 67 15 18 206 192 185 177 178 178 177 183 178 186 196 199 235 279 300 291 284 268 209 202 223 212 238 266 278 286 284 284 282 283 281 268 275 289 289 297 244 222 217 185 235 249 246 242 243 254 252 240 232 226 222
339 335 332 328 325 322 320 319 318 318 319 320 321 321 322 319 316 314 313 315 317 319 322 321 319 320 319 315 315 323 339 342 216 185 257 325 331 210 192 192 180 184 188 183 189 185 190 196 208 243 320 302 278 244 280 266 208 246 267 253 276 275 264 286 288 287 288 286 277 272 274 279 284 267 241 221 221 252 265 267 258 255 260 255 243 232 225 220
344 340 337 333 329 324 321 318 316 315 315 317 317 318 317 316 315 314 313 315 316 317 320 319 317 318 318 312 313 318 293 285 295 254 261 245 218 229 198 198 191 195 196 194 195 189 196 200 208 211 144 291 271 231 280 300 218 226 276 263 285 280 263 284 289 292 294 287 281 277 279 277 258 271 264 230 248 267 273 275 271 265 258 249 240 232 228 223
349 346 344 339 335 330 325 320 317 315 315 315 315 314 312 312 313 314 316 316 315 314 315 317 314 313 315 310 309 312 293 302 335 234 245 207 198 227 209 203 202 206 205 206 206 197 207 211 214 217 198 254 262 255 308 338 304 220 251 282 299 294 284 290 294 297 298 291 287 283 269 265 262 270 262 256 270 277 275 273 270 264 253 246 238 233 230 224
353 350 348 345 341 336 331 326 321 318 318 316 314 311 308 309 311 314 317 315 312 308 310 311 309 309 310 303 305 314 302 329 25 220 225 203 202 211 218 220 214 219 216 210 212 209 218 227 231 233 226 258 283 294 348 14 318 240 262 294 299 296 295 298 299 298 298 291 285 274 259 273 282 297 268 270 278 282 281 275 266 256 250 248 239 233 230 226
354 352 350 348 344 340 336 331 327 325 323 320 314 309 306 309 313 315 315 313 308 303 306 306 305 306 302 295 284 320 304 303 326 217 205 207 202 204 216 228 234 239 229 219 218 217 220 216 218 231 240 266 292 316 337 340 287 293 291 292 289 289 292 295 292 292 295 288 280 251 268 287 291 45 272 277 283 289 289 280 266 256 251 253 243 232 229 229
354 353 352 349 346 343 339 336 334 331 328 324 318 310 307 311 315 315 314 312 309 307 307 305 305 301 294 281 231 225 284 266 273 195 198 203 197 203 213 235 254 258 247 236 231 230 229 215 201 130 253 275 317 325 324 311 304 306 304 299 294 295 297 294 279 285 300 300 314 291 272 291 293 169 254 275 290 295 289 278 268 258 252 254 245 232 227 228
355 354 352 350 347 344 340 340 339 335 332 328 323 316 310 314 316 315 314 313 313 314 313 310 306 297 290 271 253 266 268 234 237 206 192 189 188 193 206 249 266 271 270 261 252 248 245 238 235 246 259 280 325 333 317 314 315 306 308 303 301 314 311 309 291 306 344 323 334 344 295 308 303 226 265 286 299 292 286 275 265 257 251 249 241 230 224 227
355 355 354 351 348 344 342 343 342 337 336 333 330 325 319 317 317 317 316 314 314 315 316 313 302 294 281 262 264 287 249 225 219 200 183 182 185 186 204 240 257 268 271 270 269 266 264 264 257 256 267 272 283 299 295 307 313 302 305 278 308 333 307 315 338 328 339 329 335 8 322 312 286 274 296 310 303 282 278 270 261 253 248 243 236 228 223 225
356 356 355 352 350 346 345 346 343 340 341 341 339 336 329 322 319 320 317 315 319 320 320 316 307 297 272 265 280 269 258 243 218 205 195 189 188 193 206 230 255 265 265 264 266 271 276 274 274 272 272 264 264 290 303 314 322 307 328 13 343 341 286 305 324 323 348 340 346 53 163 295 293 298 306 317 309 276 270 270 262 251 246 241 235 228 225 225
358 357 356 354 350 347 347 347 345 346 347 348 347 344 340 333 326 324 319 316 328 334 332 322 318 304 281 287 308 289 282 267 231 220 220 216 207 209 214 230 258 272 271 268 265 268 275 268 270 273 268 269 276 307 319 335 356 348 351 328 334 350 296 309 319 15 40 327 344 55 305 287 293 298 305 316 317 282 267 273 267 252 247 240 236 231 227 225
359 359 357 354 351 349 348 348 348 350 352 352 351 349 347 341 335 332 316 306 326 339 338 325 325 323 291 311 38 41 39 75 76 55 237 231 222 218 218 235 258 273 274 268 265 266 273 277 277 272 266 274 226 76 353 338 336 2 39 297 295 325 313 319 318 8 68 340 346 47 257 283 292 297 304 311 311 290 270 274 271 257 249 242 239 235 230 227
359 360 359 356 353 350 349 350 351 353 354 353 354 352 345 336 334 335 318 303 317 327 328 322 311 302 275 279 45 66 73 85 70 36 17 252 229 224 218 230 255 270 273 268 264 261 261 267 260 260 285 28 96 88 19 326 306 322 10 311 266 282 296 310 307 312 30 3 325 281 194 265 278 289 300 305 313 295 265 269 273 267 256 244 241 238 233 229
358 360 360 359 355 351 351 351 352 355 354 353 356 356 346 330 320 312 315 307 307 317 327 341 337 315 285 259 115 110 49 352 351 353 349 299 222 224 220 227 253 272 288 285 256 238 228 238 132 262 358 14 25 87 111 263 258 276 303 310 291 285 271 275 286 305 346 338 305 296 271 276 286 292 295 307 328 296 265 269 273 270 262 248 240 238 237 233
358 360 1 0 357 353 352 351 353 354 352 355 359 358 355 349 331 291 326 323 313 329 323 322 322 272 261 274 266 267 284 284 294 317 327 293 202 215 218 224 248 265 325 24 254 213 186 217 40 322 312 299 237 160 194 231 228 252 269 272 285 293 285 273 273 278 339 331 301 297 300 287 296 298 293 315 331 294 274 280 277 270 261 247 240 237 236 236
358 359 0 1 358 355 353 352 353 352 354 359 358 4 18 8 11 316 343 355 27 347 316 307 292 271 272 279 280 278 278 273 275 291 328 202 188 199 212 221 250 273 248 145 234 300 104 309 280 245 245 240 231 207 216 245 246 271 286 273 279 282 285 283 279 281 68 8 289 286 298 286 286 286 290 323 325 288 281 287 283 280 270 251 243 239 236 238
358 358 359 1 360 356 355 354 354 355 359 357 357 20 43 19 32 329 338 351 5 342 333 335 307 286 294 295 288 280 281 273 248 239 248 204 172 178 206 210 232 298 263 150 167 359 70 248 250 235 235 240 244 218 218 269 275 262 265 276 290 268 270 280 282 288 75 139 272 291 309 291 282 281 295 326 313 270 285 290 287 293 288 270 251 244 242 242
357 358 358 0 1 358 358 1 1 360 1 355 4 33 49 28 24 326 329 316 324 345 355 356 344 332 347 342 311 266 264 276 240 230 228 184 168 177 188 172 155 223 303 74 102 343 35 253 254 246 237 243 266 228 186 221 226 234 240 275 288 270 273 280 278 289 108 158 272 296 306 289 284 290 298 292 270 264 295 295 295 299 297 285 264 250 247 243
356 358 357 359 1 360 1 8 6 2 4 7 16 30 31 16 358 324 319 289 309 343 2 3 10 7 13 18 6 253 209 234 258 243 214 185 178 180 171 163 167 196 43 124 182 181 250 245 248 241 188 189 260 232 155 205 245 218 215 212 272 279 296 280 284 316 344 225 262 278 294 288 286 305 302 264 266 289 289 291 295 293 294 292 283 266 252 244
355 357 357 357 360 2 4 7 7 6 11 17 19 22 14 359 345 324 314 276 291 336 3 14 22 17 15 13 11 23 194 227 248 237 204 193 179 172 179 173 145 198 224 194 194 209 249 248 237 186 175 182 249 264 156 197 273 232 214 204 241 270 259 236 275 322 326 292 243 270 325 302 290 319 299 275 303 307 287 292 291 284 287 290 291 284 263 251
355 356 355 354 359 4 4 5 8 10 14 15 11 11 1 346 337 325 319 323 287 321 3 22 23 22 13 4 2 352 314 255 310 302 204 202 190 171 177 176 160 234 227 168 192 249 265 258 229 246 255 181 222 269 189 180 245 283 231 211 220 249 256 254 278 341 351 320 277 27 349 296 303 313 275 286 332 311 295 295 281 281 291 292 295 296 279 261
356 355 353 353 357 2 7 11 9 11 14 6 1 360 352 339 334 323 324 58 18 318 358 13 8 17 6 356 348 343 345 320 339 348 210 213 213 192 155 161 185 235 188 148 156 249 265 277 225 242 276 240 227 272 218 173 169 300 239 209 212 231 249 264 276 284 337 293 297 39 308 273 314 302 264 288 323 302 303 295 278 288 307 315 315 314 302 278
355 355 352 352 356 2 12 15 7 10 12 358 353 354 346 338 342 329 344 54 10 307 341 358 2 8 360 357 355 355 330 318 337 5 290 219 216 212 208 213 215 221 162 133 328 243 237 295 334 56 320 311 265 269 226 164 134 244 245 212 204 224 237 242 241 224 238 280 313 8 203 260 297 270 266 308 314 300 303 294 289 301 312 321 331 334 323 298
355 354 352 352 357 5 12 12 7 10 8 353 348 350 343 339 338 345 68 81 330 320 348 344 351 357 357 12 36 24 359 344 354 1 345 230 205 214 218 219 199 197 158 135 232 259 208 260 271 136 94 267 245 249 218 147 153 250 254 246 227 232 244 243 239 247 263 332 306 305 211 250 273 268 297 346 317 289 287 283 286 304 314 323 334 342 341 319
355 354 352 351 355 2 7 8 8 6 360 351 347 345 341 339 331 45 76 112 309 351 359 350 356 349 350 7 34 19 27 37 24 346 359 167 203 220 235 235 195 184 231 163 212 259 235 228 236 139 171 241 243 256 222 159 211 265 287 295 288 281 273 281 267 258 328 35 260 265 225 225 274 286 307 343 302 273 275 279 280 297 313 323 334 341 346 341
355 355 351 349 351 355 359 3 4 360 354 350 344 339 339 343 42 70 43 250 305 345 346 3 0 340 347 355 7 10 22 22 7 7 24 44 218 240 286 283 190 163 274 285 237 262 281 293 246 171 214 228 245 271 249 185 231 287 350 327 321 347 353 25 6 186 76 287 253 259 217 171 274 285 261 244 227 231 257 284 296 309 321 329 339 344 347 352
354 354 351 348 347 349 352 356 356 352 349 348 341 339 339 345 67 86 54 259 308 343 350 10 351 343 359 9 339 351 356 347 2 16 15 10 3 336 348 345 354 37 359 336 303 301 324 323 274 270 267 252 256 286 301 7 295 325 34 22 357 335 348 22 359 38 133 262 259 274 261 154 215 267 255 253 246 231 233 264 295 314 322 330 340 344 347 357
352 351 349 345 340 344 349 351 347 343 343 345 340 338 353 22 24 93 269 313 340 344 346 337 333 341 348 8 353 335 341 344 354 15 9 352 18 20 23 19 326 350 345 299 301 336 321 275 283 309 308 7 56 326 327 357 27 42 59 55 31 338 354 356 321 331 218 252 260 298 319 198 229 250 255 275 281 271 238 237 268 299 319 329 337 344 350 3
350 347 348 342 336 339 343 343 341 338 338 342 339 342 63 72 356 250 303 347 342 318 337 330 330 330 338 29 0 326 349 10 349 2 357 358 39 30 10 9 5 334 269 271 313 339 319 299 319 329 352 22 61 80 333 322 345 357 30 74 67 45 15 307 282 299 274 267 280 341 342 285 285 267 240 255 273 277 272 265 284 326 337 337 341 351 0 12
351 346 344 339 337 339 339 340 342 340 339 343 348 14 57 65 258 300 353 325 298 320 339 337 324 329 19 55 342 336 19 356 352 11 356 8 30 1 349 8 16 33 330 349 334 312 325 303 318 352 312 337 23 131 243 243 295 314 160 130 100 124 135 266 242 254 276 281 294 326 324 242 275 277 245 254 274 281 294 306 343 3 357 351 359 13 20 25
353 347 341 338 343 341 339 344 348 347 344 347 14 65 76 261 269 347 345 305 301 322 322 334 2 14 13 356 319 16 47 330 344 17 4 20 29 349 354 8 8 21 40 13 300 261 27 252 270 305 280 292 14 310 258 198 298 289 132 94 24 172 174 235 231 220 245 291 286 281 248 226 233 278 289 308 304 301 349 27 32 20 12 22 29 38 43 47
354 352 349 345 347 347 346 349 352 352 349 358 47 67 115 224 272 174 320 323 305 305 325 344 36 53 350 327 321 359 26 10 355 6 352 28 47 357 354 0 7 22 42 16 276 317 12 277 297 320 306 90 17 318 301 13 297 280 38 7 266 187 155 197 287 292 23 309 277 265 269 290 328 320 325 353 328 307 342 15 22 15 17 29 30 38 52 64
356 355 355 353 353 354 352 351 353 351 353 28 80 82 211 220 126 190 329 328 293 296 25 15 357 21 342 331 318 328 353 6 5 4 336 351 31 359 346 336 356 11 7 323 269 264 353 274 294 313 283 336 348 332 290 4 48 88 9 270 267 20 99 107 304 326 359 289 281 330 281 300 334 309 324 353 329 312 336 352 354 5 17 16 11 13 22 43
356 351 351 357 356 355 354 354 353 349 5 53 70 57 232 238 14 359 346 336 299 329 56 77 299 19 79 315 295 307 344 357 2 5 336 331 38 17 7 333 334 345 339 328 276 257 347 287 290 288 256 316 341 356 292 327 32 89 197 269 16 1 315 354 298 267 300 284 286 311 303 281 245 267 326 336 318 321 332 335 353 13 16 10 5 3 6 14
354 349 349 355 355 355 356 356 352 356 35 67 45 358 337 288 334 355 354 345 318 24 32 240 280 2 16 140 274 305 351 12 4 8 344 337 55 41 25 352 318 332 335 349 63 295 336 318 288 289 318 321 337 12 330 319 352 26 352 354 30 179 211 242 213 188 196 254 274 304 324 291 236 244 307 304 305 315 312 318 15 21 11 13 11 6 4 10
355 352 344 351 354 355 353 354 1 17 55 84 119 251 328 314 326 348 359 360 339 25 14 291 325 346 322 359 5 324 355 48 19 34 229 327 78 58 21 358 317 322 330 4 52 335 346 31 280 295 342 329 320 330 302 287 301 320 324 327 323 295 261 264 249 154 148 212 243 284 297 273 247 230 257 281 302 309 304 309 67 46 25 24 23 17 11 16
1 357 334 347 354 352 353 9 29 35 79 87 13 291 326 333 325 337 356 8 6 28 29 339 7 11 307 344 1 335 342 341 352 315 224 10 43 55 4 352 328 311 329 9 32 2 0 324 275 297 331 314 256 247 251 260 261 246 240 262 258 253 300 294 284 316 62 169 189 205 271 271 258 223 228 265 305 325 343 349 6 35 31 27 32 37 24 18
6 357 327 344 352 353 4 40 34 27 104 46 333 282 299 318 330 333 350 6 12 14 13 17 62 39 8 331 338 1 7 321 305 337 276 38 64 121 354 356 347 340 15 16 323 324 331 292 275 285 257 237 258 256 241 276 261 181 163 165 147 118 65 267 261 283 345 321 208 173 239 267 258 219 217 212 122 61 35 20 1 20 23 21 28 38 40 41
357 341 328 346 349 353 17 59 8 5 71 336 317 285 290 302 354 356 351 5 9 357 6 26 47 35 47 15 4 24 7 302 240 10 347 47 96 118 11 9 6 8 32 25 320 332 333 346 341 306 275 242 274 281 20 41 52 70 1 5 3 308 279 209 215 214 273 280 281 262 254 267 272 262 248 227 104 79 62 47 20 11 16 17 18 21 34 55
344 333 348 360 353 356 46 93 6 336 311 333 340 341 332 333 20 10 351 358 1 355 18 19 22 32 26 6 36 29 338 338 34 14 34 66 166 190 11 12 16 23 28 31 354 338 327 354 0 328 317 318 329 347 2 356 21 23 316 315 321 306 300 292 336 64 261 243 228 231 249 259 267 305 298 287 76 79 85 79 53 7 6 10 10 9 12 25
345 335 10 13 15 40 80 99 95 206 310 352 357 346 353 2 6 5 7 20 17 31 68 345 349 31 21 14 36 12 358 48 7 345 31 3 299 243 354 359 5 23 31 28 10 352 246 241 333 314 297 291 304 321 309 311 320 299 298 312 321 324 323 316 332 4 264 254 211 218 250 266 272 291 315 319 50 162 206 157 134 342 333 337 340 342 339 345
360 348 347 5 29 59 73 68 59 69 16 20 0 345 18 355 336 356 33 49 27 30 59 41 349 14 38 39 35 354 353 13 354 14 31 339 304 285 340 342 345 3 15 22 13 9 152 68 276 215 247 259 267 275 261 294 293 275 280 289 283 288 294 303 288 246 251 262 252 247 253 271 277 272 265 271 253 226 237 235 203 194 225 294 319 316 310 316
21 15 346 354 13 50 62 45 33 28 17 60 356 322 15 338 314 352 29 44 25 25 49 57 27 36 52 35 37 310 322 328 2 48 332 300 278 304 329 327 323 357 13 19 15 17 120 325 262 232 255 255 253 274 288 295 282 276 282 274 251 257 264 252 250 247 238 269 267 265 255 253 272 274 246 220 241 242 246 243 228 217 214 222 265 282 276 274
13 343 32 31 333 11 53 15 8 3 351 61 150 332 25 12 344 352 349 356 20 28 35 20 16 29 22 358 102 314 337 341 358 10 310 299 315 314 325 313 288 1 21 15 11 21 235 272 240 232 268 268 255 274 283 280 277 276 280 275 259 248 236 231 241 239 214 241 262 275 275 258 265 275 260 211 224 233 234 236 233 230 228 226 235 240 239 243
347 251 238 222 255 224 202 308 336 353 352 23 34 27 53 25 352 302 301 338 3 12 29 22 324 345 357 26 98 89 16 2 322 323 313 324 329 311 315 298 280 15 28 11 353 346 220 252 243 255 289 286 277 244 257 272 281 283 285 284 273 253 237 232 240 238 230 239 252 262 266 263 261 267 261 236 238 238 237 246 252 245 238 235 236 237 235 241
266 245 235 231 272 251 204 278 347 61 10 26 42 20 69 48 353 312 305 9 345 331 23 40 299 314 44 66 74 105 137 187 226 255 277 326 330 301 291 269 250 345 2 353 327 301 216 247 292 322 292 289 294 172 234 265 280 286 293 296 287 276 261 245 239 239 238 245 253 254 258 265 267 268 262 250 253 251 248 259 262 256 251 245 240 237 236 239
259 255 238 207 286 264 195 278 95 118 6 13 162 217 52 34 329 320 315 54 80 44 13 341 290 301 54 57 58 45 298 291 262 263 270 271 263 258 261 257 265 308 330 284 258 275 234 278 316 3 281 284 312 39 302 293 293 287 288 289 287 282 272 255 236 233 237 245 257 260 258 264 278 299 305 274 273 271 260 261 261 258 257 249 242 241 240 240
255 248 237 207 254 263 195 184 76 119 205 199 169 188 149 267 339 0 303 71 72 59 27 22 9 344 32 46 9 323 314 306 291 287 285 274 264 259 257 258 263 268 261 232 248 220 203 257 285 287 268 280 306 346 336 324 314 295 280 295 309 302 297 310 310 285 269 256 261 271 276 298 323 343 346 326 319 313 292 283 280 278 276 268 258 254 252 251